Content
SEND FEEDBACK

Daily
Averages
Monthly
Summary
United States of America

INARAJAN, GUAM


Home > North America > United States > Guam
Elevation: 280 feet     Latitude: 13 18N     Longitude: 144 44E

WEATHER
 
SELECT A DAY
Number of Records: 342,219;   Date Range: 1/1/95 - 8/28/14
 
SHARE

PRINT THIS DATA

[ ← Previous Day ]
WEATHER ALMANAC - APRIL 8, 2013
[ Next Day → ]
[ °C ]   °F
Weather ElementAverageHighLow
Temperature79.2 °F84.4 °F (1:55 pm)76.3 °F (3:55 am)
Dewpoint72 °F73.4 °F (1:10 am)69.4 °F (8:55 pm)
Humidity78.8 %89 % (1:10 am)66 % (10:56 am)
Barometer29.85 in29.89 in (8:47 am)29.79 in (3:55 pm)
Wind Speed8.8 mph13.8 mph (7:56 pm)
Weather ElementAverage
Visibility9.9 mi
Wind DirectionENE (82.5 °)

Weather ElementTotal
Precipitation---
Cooling Degree Days15.4 (Base 65)
Growing Degree Days30.4 (Base 50)
Averaged from 65 records on April 8, 2013
WEATHER CONDITIONS BREAKOUT
WIND DIRECTION BREAKOUT
WEATHER BY HOUR - APRIL 8, 2013
[ °C ]   °F
Local TimeTemperatureDewpointHumidityBarometerVisibilityWind DirectionWind SpeedGust SpeedPrecipitationEventsConditions
12:54 AM77.0 °F71.6 °F83 %29.83 in10.0 miEast (80°)10.4 mphScattered Clouds
12:55 AM77.5 °F72.0 °F83 %29.83 in10.0 miEast (80°)10.4 mphScattered Clouds
12:56 AM77.0 °F71.6 °F83 %29.83 in10.0 miEast (90°)10.4 mphMostly Cloudy
1:07 AM77.0 °F71.6 °F83 %29.83 in10.0 miENE (70°)9.2 mphMostly Cloudy
1:08 AM77.0 °F71.6 °F83 %29.83 in10.0 miEast (80°)8.1 mphMostly Cloudy
1:10 AM77.0 °F73.4 °F89 %29.83 in10.0 miEast (80°)5.8 mphScattered Clouds
1:11 AM77.0 °F73.4 °F89 %29.83 in10.0 miEast (80°)6.9 mphMostly Cloudy
1:27 AM77.0 °F71.6 °F83 %29.82 in10.0 miEast (100°)9.2 mphScattered Clouds
1:55 AM77.4 °F72.3 °F84 %29.81 in10.0 miEast (80°)6.9 mphScattered Clouds
1:57 AM77.0 °F71.6 °F83 %29.82 in10.0 miENE (70°)8.1 mphMostly Cloudy
2:21 AM77.0 °F71.6 °F83 %29.81 in10.0 miEast (80°)6.9 mphScattered Clouds
2:35 AM77.0 °F73.4 °F89 %29.80 in10.0 miEast (90°)4.6 mphMostly Cloudy
2:39 AM77.0 °F73.4 °F89 %29.81 in10.0 miEast (90°)5.8 mphMostly Cloudy
2:41 AM77.0 °F73.4 °F89 %29.80 in10.0 miEast (90°)4.6 mphMostly Cloudy
2:55 AM77.5 °F72.1 °F83 %29.80 in10.0 miEast (90°)8.1 mphMostly Cloudy
3:01 AM77.0 °F71.6 °F83 %29.80 in10.0 miEast (90°)6.9 mphScattered Clouds
3:55 AM76.3 °F72.0 °F86 %29.80 in10.0 miEast (80°)5.8 mphPartly Cloudy
4:55 AM77.4 °F72.1 °F84 %29.81 in10.0 miESE (110°)4.6 mphMostly Cloudy
4:56 AM77.0 °F71.6 °F83 %29.81 in10.0 miESE (110°)4.6 mphMostly Cloudy
4:57 AM77.0 °F71.6 °F83 %29.81 in10.0 miESE (120°)4.6 mphLight Drizzle
5:07 AM77.0 °F71.6 °F83 %29.81 in10.0 miEast (90°)6.9 mphMostly Cloudy
5:55 AM76.6 °F71.6 °F84 %29.83 in10.0 miEast (90°)6.9 mph0.00 inPartly Cloudy
6:34 AM77.0 °F71.6 °F83 %29.84 in10.0 miEast (100°)6.9 mphRainLight Rain
6:43 AM77.0 °F71.6 °F83 %29.85 in10.0 miEast (90°)8.1 mphPartly Cloudy
6:55 AM78.1 °F71.6 °F80 %29.85 in10.0 miEast (80°)8.1 mph0.00 inPartly Cloudy
7:55 AM80.4 °F72.1 °F76 %29.87 in10.0 miENE (70°)8.1 mphClear
8:15 AM78.8 °F73.4 °F83 %29.88 in9.0 miEast (100°)12.7 mphRainLight Rain
8:16 AM78.8 °F73.4 °F83 %29.88 in8.0 miEast (100°)10.4 mphRainLight Rain
8:28 AM77.0 °F73.4 °F89 %29.88 in9.0 miESE (120°)6.9 mphMostly Cloudy
8:38 AM78.8 °F73.4 °F83 %29.88 in10.0 miEast (100°)5.8 mphMostly Cloudy
8:47 AM78.8 °F73.4 °F83 %29.89 in10.0 miENE (70°)4.6 mphMostly Cloudy
8:48 AM78.8 °F73.4 °F83 %29.89 in10.0 miVariable4.6 mphLight Drizzle
8:55 AM79.2 °F73.2 °F82 %29.89 in10.0 miEast (90°)6.9 mph0.00 inLight Drizzle
8:58 AM78.8 °F73.4 °F83 %29.89 in10.0 miESE (110°)9.2 mphMostly Cloudy
9:12 AM80.6 °F71.6 °F74 %29.89 in10.0 miEast (100°)10.4 mphMostly Cloudy
9:13 AM80.6 °F71.6 °F74 %29.89 in10.0 miEast (80°)11.5 mphMostly Cloudy
9:16 AM80.6 °F71.6 °F74 %29.89 in10.0 miEast (90°)9.2 mphMostly Cloudy
9:17 AM80.6 °F71.6 °F74 %29.89 in10.0 miEast (100°)8.1 mphMostly Cloudy
9:32 AM80.6 °F71.6 °F74 %29.89 in10.0 miEast (100°)8.1 mphScattered Clouds
9:55 AM82.6 °F71.8 °F70 %29.89 in10.0 miESE (120°)10.4 mph0.00 inPartly Cloudy
10:55 AM83.5 °F72.3 °F69 %29.88 in10.0 miEast (100°)10.4 mphScattered Clouds
10:56 AM84.2 °F71.6 °F66 %29.88 in10.0 miEast (100°)9.2 mphMostly Cloudy
10:58 AM82.4 °F73.4 °F74 %29.88 in10.0 miEast (90°)8.1 mphScattered Clouds
11:04 AM82.4 °F73.4 °F74 %29.87 in10.0 miEast (100°)8.1 mphMostly Cloudy
11:55 AM84.0 °F72.5 °F68 %29.86 in10.0 miEast (90°)10.4 mphMostly Cloudy
11:56 AM84.2 °F73.4 °F70 %29.86 in10.0 miEast (90°)10.4 mphMostly Cloudy
12:15 PM84.2 °F71.6 °F66 %29.86 in10.0 miENE (60°)10.4 mphMostly Cloudy
12:55 PM83.7 °F71.4 °F66 %29.84 in10.0 miENE (70°)10.4 mphMostly Cloudy
1:55 PM84.4 °F72.3 °F67 %29.82 in10.0 miENE (60°)9.2 mphPartly Cloudy
2:55 PM83.5 °F71.6 °F67 %29.80 in10.0 miEast (80°)10.4 mphPartly Cloudy
3:55 PM81.7 °F72.1 °F73 %29.79 in10.0 miENE (70°)10.4 mphScattered Clouds
4:55 PM80.4 °F71.1 °F73 %29.81 in10.0 miENE (70°)8.1 mphPartly Cloudy
5:14 PM82.4 °F71.6 °F70 %29.81 in10.0 miENE (70°)10.4 mphMostly Cloudy
5:17 PM80.6 °F71.6 °F74 %29.81 in10.0 miENE (70°)9.2 mphScattered Clouds
5:55 PM80.1 °F71.8 °F76 %29.81 in10.0 miENE (60°)10.4 mphScattered Clouds
6:55 PM78.6 °F71.6 °F79 %29.83 in10.0 miENE (60°)12.7 mphScattered Clouds
7:10 PM78.8 °F71.6 °F78 %29.84 in10.0 miENE (60°)10.4 mphMostly Cloudy
7:26 PM78.8 °F71.6 °F78 %29.84 in10.0 miENE (60°)10.4 mphMostly Cloudy
7:55 PM79.0 °F70.7 °F76 %29.86 in10.0 miENE (60°)12.7 mphMostly Cloudy
7:56 PM78.8 °F71.6 °F78 %29.86 in10.0 miENE (60°)13.8 mphMostly Cloudy
8:11 PM78.8 °F69.8 °F74 %29.86 in10.0 miENE (60°)12.7 mphMostly Cloudy
8:55 PM77.5 °F69.4 °F76 %29.87 in10.0 miENE (60°)12.7 mphClear
9:55 PM77.5 °F69.4 °F76 %29.89 in10.0 miENE (70°)11.5 mphPartly Cloudy
10:55 PM77.0 °F70.3 °F80 %29.88 in10.0 miENE (70°)13.8 mphPartly Cloudy
11:55 PM77.2 °F70.0 °F78 %29.88 in10.0 miENE (60°)10.4 mphPartly Cloudy
Hourly data recorded from PGUA, located miles away from Inarajan, Guam







STORIES FROM OUR PARTNERS